EHI
0 0 0 0 0 0 0 0 0 0 0 0 0 0 0 0 0 0 0 0 0 0 0 0 0 0 0 0 0 0 0 0 0 0 0 0 0 0 0 0 0 0 0
0 0 0 0 0 0 0 0 0 0 0 0 0 0 0 0 0 0 0 0 0 0 0 0 0 0 0 0 0 0 0 0 0 0 0 0 0 0 0 0 0 0 0
0 0 0 0 0 0 0 0 0 0 0 0 0 0 0 0 0 0 0 0 0 0 0 0 0 0 0 0 0 0 0 0 0 0 0 0 0 0 0 0 0 0 0
0 0 0 0 0 0 0 0 0 0 0 0 0 0 0 0 0 0 0 0 0 0 0 0 0 0 0 0 0 0 0 0 0 0 0 0 0 0 0 0 0 0 0
0 0 0 0 0 0 0 0 0 0 0 0 0 0 0 0 0 0 0 0 0 0 0 0 0 0 0 0 0 0 0 0 0 0 0 0 0 0 0 0 0 0 0
0 0 0 0 0 0 0 0 0 0 0 0 0 0 0 0 0 0 0 0 0 0 0 0 0 0 0 0 0 0 0 0 0 0 0 0 0 0 0 0 0 0 0
0 0 0 0 0 0 0 0 0 0 0 0 0 0 0 0 0 0 0 0 0 0 0 0 0 0 0 0 0 0 0 0 0 0 0 0 0 0 0 0 0 0 0
0 0 0 0 0 0 0 0 0 0 0 0 0 0 0 0 0 0 0 0 0 0 0 0 0 0 0 0 0 0 0 0 0 0 0 0 0 0 0 0 0 0 0
0 1 1 1 1 0 0 0 0 0 0 0 0 0 0 0 0 0 0 0 0 0 0 0 0 0 0 0 0 0 0 0 0 0 0 0 0 0 0 0 0 0 0
1 2 2 2 2 1 0 0 0 0 0 0 0 0 0 0 0 0 0 0 0 0 0 0 0 0 0 0 0 0 0 0 0 0 0 0 0 0 0 0 0 0 0
3 3 3 3 2 1 0 0 0 0 0 0 0 0 0 0 0 0 0 0 0 0 0 0 0 0 0 0 0 0 0 0 0 0 0 0 0 0 0 0 0 0 0
3 2 2 2 1 0 0 0 0 0 0 0 0 0 0 0 0 0 0 0 0 0 0 0 0 0 0 0 0 0 0 0 0 0 0 0 0 0 0 0 0 0 0
3 2 1 0 0 0 0 0 0 0 0 0 0 0 0 0 0 0 0 0 0 0 0 0 0 0 0 0 0 0 0 0 0 0 0 0 0 0 0 0 0 0 0
3 2 1 0 0 0 0 0 0 0 0 0 0 0 0 0 0 0 0 0 0 0 0 0 0 0 0 0 0 0 0 0 0 0 0 0 0 0 0 0 0 0 0
3 3 1 0 0 0 0 0 0 0 0 0 0 0 0 0 0 0 0 0 0 0 0 0 0 0 0 0 0 0 0 0 0 0 0 0 0 0 0 0 0 0 0
3 3 2 0 0 0 0 0 0 0 0 0 0 0 0 0 0 0 0 0 0 0 0 0 0 0 0 0 0 0 0 0 0 0 0 0 0 0 0 0 0 0 0
3 2 1 0 0 0 0 0 0 0 0 0 0 0 0 0 0 0 0 0 0 0 0 0 0 0 0 0 0 0 0 0 0 0 0 0 0 0 0 0 0 0 0
2 1 0 0 0 0 0 0 0 0 0 0 0 0 0 0 0 0 0 0 0 0 0 0 0 0 0 0 0 0 0 0 0 0 0 0 0 0 0 0 0 0 0
1 0 0 0 0 0 0 0 0 0 0 0 0 0 0 0 0 0 0 0 0 0 0 0 0 0 0 0 0 0 0 0 0 0 0 0 0 0 0 0 0 0 0
0 0 0 0 0 0 0 0 0 0 0 0 0 0 0 0 0 0 0 0 0 0 0 0 0 0 0 0 0 0 0 0 0 0 0 0 0 0 0 0 0 0 0
0 0 0 0 0 0 0 0 0 0 0 0 0 0 0 0 0 0 0 0 0 0 0 0 0 0 0 0 0 0 0 0 0 0 0 0 0 0 0 0 0 0 0
0 0 0 0 0 0 0 0 0 0 0 0 0 0 0 0 0 0 0 0 0 0 0 0 0 0 0 0 0 0 0 0 0 0 0 0 0 0 0 0 0 0 0
0 0 0 0 0 0 0 0 0 0 0 0 0 0 0 0 0 0 0 0 0 0 0 0 0 0 0 0 0 0 0 0 0 0 0 0 0 0 0 0 0 0 0
0 0 0 0 0 0 0 0 0 0 0 0 0 0 0 0 0 0 0 0 0 0 0 0 0 0 0 0 0 0 0 0 0 0 0 0 0 0 0 0 0 0 0
0 0 0 0 0 0 0 0 0 0 0 0 0 0 0 0 0 0 0 0 0 0 0 0 0 0 0 0 0 0 0 0 0 0 0 0 0 0 0 0 0 0 0
0 0 0 0 0 0 0 0 0 0 0 0 0 0 0 0 0 0 0 0 0 0 0 0 0 0 0 0 0 0 0 0 0 0 0 0 0 0 0 0 0 0 0
Wind_Speed
7 6 7 6 6 6 6 6 5 4 5 5 5 5 4 4 3 3 3 3 3 2 2 2 2 2 2 1 2 2 1 2 2 1 1 2 2 3 3 3 3 2 3
8 7 7 7 6 6 6 6 6 5 5 5 5 5 4 4 4 4 3 3 3 3 2 2 2 1 2 1 1 1 1 1 2 1 1 2 2 2 3 3 3 2 3
8 8 7 7 7 7 6 6 5 5 5 4 4 5 4 4 4 4 3 3 3 3 3 3 3 2 2 1 1 1 1 1 1 1 1 1 2 2 2 3 3 3 4
9 9 9 8 8 7 7 6 6 6 5 5 4 4 4 4 4 4 4 3 3 3 3 3 3 4 4 3 2 2 2 1 1 1 2 2 2 2 2 2 3 2 3
10 10 9 8 7 7 7 6 6 6 6 5 5 4 4 4 4 5 4 4 4 3 3 3 4 5 6 5 3 3 3 2 2 2 2 2 2 2 2 2 3 4 4
11 11 9 8 8 8 8 7 6 6 5 5 5 5 5 4 6 8 6 4 4 4 4 3 4 4 5 6 7 7 7 5 4 3 3 3 4 4 3 2 2 3 4
11 10 10 10 10 9 9 8 7 7 5 5 5 5 5 6 7 8 8 5 5 4 4 4 3 3 3 3 4 5 6 8 8 5 5 6 5 5 3 4 4 4 5
11 11 10 10 10 9 8 8 7 6 6 5 6 6 5 6 8 8 8 5 4 5 5 5 5 5 4 4 4 4 5 6 7 7 7 8 7 6 5 5 5 5 6
12 12 12 12 11 10 10 9 7 6 6 6 5 6 6 6 8 9 7 4 4 5 5 6 6 6 7 6 5 5 6 6 6 8 10 10 10 10 7 4 4 4 6
14 13 11 11 11 11 11 8 6 6 7 6 6 6 7 7 8 10 9 4 5 5 5 5 8 9 8 6 6 6 7 7 5 5 5 7 7 8 8 8 7 6 5
11 10 10 11 11 10 9 7 6 6 6 6 6 6 7 8 8 10 10 6 6 6 5 5 5 8 10 9 8 7 9 7 5 5 6 6 6 5 6 6 7 7 7
9 10 10 10 9 8 8 7 7 7 7 6 6 6 5 6 7 9 11 12 9 6 6 5 5 7 9 9 7 9 10 7 5 5 5 6 6 6 5 5 7 8 9
10 10 9 10 8 8 9 9 7 6 6 6 5 5 5 4 5 9 10 11 12 8 6 8 8 8 7 7 9 10 7 5 5 5 7 7 6 6 6 5 6 7 9
10 9 8 9 8 8 7 7 7 7 7 6 6 6 5 5 5 4 5 5 8 8 7 6 7 7 7 7 7 6 5 5 6 7 7 7 6 5 6 5 5 5 5
9 8 8 8 8 7 7 7 8 8 8 8 7 7 6 7 8 8 6 5 5 5 4 3 3 3 4 4 5 5 5 4 6 6 6 7 7 7 7 5 5 4 5
8 8 7 6 6 6 6 4 6 7 9 11 10 7 7 8 7 8 9 9 8 6 4 4 4 5 6 6 6 6 5 6 6 6 6 7 7 7 7 6 5 6 7
8 7 6 6 6 6 6 6 4 4 5 8 10 11 10 9 9 8 8 7 6 7 5 5 6 6 6 6 6 6 6 6 5 6 6 7 7 7 7 7 7 7 7
6 6 6 5 5 5 5 5 5 4 4 3 5 8 10 10 9 9 7 5 3 4 5 6 6 6 6 6 6 6 7 6 5 6 6 7 7 7 7 7 7 8 8
5 4 4 4 4 4 4 4 4 5 4 3 2 3 5 6 6 6 6 5 5 6 6 6 7 6 6 6 6 6 6 6 6 6 6 7 7 7 7 7 7 9 8
4 6 5 4 3 3 3 3 3 4 4 3 3 3 2 2 2 3 4 5 5 6 6 6 6 6 6 6 6 5 6 6 6 6 6 6 6 6 8 9 8 7 7
3 4 6 4 3 3 3 3 3 3 3 3 3 3 4 3 4 4 4 5 5 6 6 6 6 6 6 5 5 6 7 6 6 6 6 6 6 6 6 7 7 7 7
3 3 3 3 2 2 2 2 2 2 2 2 2 1 3 2 2 2 3 3 4 4 4 4 5 5 5 5 5 6 6 6 6 6 6 6 5 6 6 7 7 7 7
4 4 3 3 2 2 2 1 1 1 1 1 0 0 0 1 1 2 3 3 3 3 3 4 4 5 4 4 5 5 6 6 6 5 6 6 6 6 6 7 8 9 8
4 4 4 3 2 2 1 1 1 1 0 0 0 0 1 1 2 3 3 2 2 3 3 3 4 6 7 6 4 5 5 6 6 6 8 7 7 6 6 7 8 9 9
5 4 4 3 3 2 2 1 1 1 1 1 0 0 1 1 2 2 2 2 3 3 4 4 4 5 7 8 7 6 5 5 5 5 6 6 8 8 8 8 8 8 9
5 5 4 3 3 3 2 2 1 1 1 1 1 1 1 2 2 2 3 3 3 4 4 4 6 7 7 6 6 6 4 5 5 5 5 6 7 7 7 7 9 8 9
Wind_Direction
161 157 149 153 153 151 156 163 161 158 158 160 158 151 145 142 141 135 136 134 127 116 109 115 106 111 100 94 102 111 121 139 174 266 277 299 309 326 335 334 320 311 305
163 157 156 154 153 156 161 165 161 162 165 162 156 153 157 155 154 155 159 154 152 153 151 141 143 133 115 116 124 133 149 166 179 236 287 303 298 308 314 317 322 318 302
160 159 158 159 162 167 168 165 162 161 161 160 159 165 170 169 170 175 173 172 176 181 182 180 184 166 179 188 179 180 184 170 177 209 271 289 292 307 317 311 309 307 300
165 166 171 175 175 173 169 167 168 166 166 172 176 180 182 180 179 181 181 181 185 194 200 200 200 199 206 204 204 204 192 181 182 214 263 282 283 294 288 296 307 310 308
170 176 183 179 171 167 169 172 171 174 180 177 177 184 186 185 192 189 189 191 193 204 216 220 224 224 223 213 210 206 193 197 206 227 259 273 279 280 279 278 289 304 293
178 185 180 172 172 175 177 174 174 180 178 175 185 191 198 209 205 199 191 194 200 208 224 238 246 243 242 234 229 216 201 204 214 218 238 253 266 262 261 261 274 300 298
182 182 178 177 180 183 180 176 183 187 183 187 195 199 210 222 218 211 205 194 205 215 223 237 251 250 244 245 249 244 231 228 217 211 236 248 254 248 244 263 256 255 265
183 184 181 181 185 181 178 185 190 185 187 195 202 206 213 228 223 220 217 205 215 226 227 227 238 256 250 237 245 256 259 250 234 227 235 247 251 252 240 253 268 273 270
187 188 186 184 184 182 187 193 190 184 192 196 199 203 213 230 226 221 210 196 222 237 236 231 231 246 252 238 231 251 270 274 257 238 239 250 256 254 243 244 250 257 279
194 193 186 183 184 188 192 189 182 187 200 200 208 209 213 226 228 222 206 201 224 241 244 239 235 238 245 232 221 232 255 267 276 283 270 268 265 263 243 229 235 246 263
190 181 178 182 186 187 183 178 177 185 193 202 214 219 220 226 231 226 210 202 219 235 245 247 240 232 239 239 226 228 241 254 270 274 281 282 278 268 255 236 227 230 242
171 174 179 180 184 183 176 179 179 183 193 206 215 229 231 230 229 229 219 215 215 224 241 247 245 240 242 244 237 236 244 249 253 262 269 273 274 273 267 254 238 234 238
166 176 178 177 181 175 178 181 179 185 197 208 211 226 237 231 230 231 230 226 222 223 240 243 250 254 254 252 246 246 245 237 237 249 258 263 262 266 273 272 259 245 248
169 174 173 175 179 178 180 183 186 191 199 207 212 223 232 233 231 226 222 225 225 228 243 251 253 254 249 254 259 250 234 229 230 245 256 263 267 267 266 264 269 268 268
165 168 172 178 178 182 187 191 195 201 198 199 210 212 216 232 233 216 207 214 213 213 205 228 242 246 251 251 251 251 242 231 234 242 250 261 265 267 267 259 254 258 256
161 166 172 176 176 179 184 195 212 212 212 213 215 211 221 227 228 215 216 223 223 196 179 224 238 242 249 254 257 259 248 240 240 243 248 253 259 264 269 265 251 253 260
161 165 167 171 174 178 182 189 204 223 221 220 222 223 227 232 232 227 221 219 214 182 201 232 241 244 247 249 253 256 259 256 247 246 251 254 256 260 263 266 265 261 262
150 155 159 169 174 179 185 191 195 200 215 234 230 227 230 233 235 231 212 176 190 196 223 235 243 245 246 248 251 255 260 265 258 253 253 256 255 256 260 263 264 264 266
140 149 157 161 167 174 179 185 194 201 206 216 224 228 224 224 227 225 186 202 225 228 229 237 244 248 249 251 253 254 256 260 261 260 259 260 260 258 261 265 267 267 265
134 137 140 145 149 156 169 185 197 202 205 212 222 226 181 167 212 215 205 223 235 243 244 246 248 248 250 251 252 252 256 259 263 261 262 263 261 260 262 265 267 269 266
126 133 131 132 141 153 163 181 196 205 214 222 228 218 192 209 231 237 228 227 235 245 251 253 255 254 252 252 253 254 257 263 263 264 267 267 266 264 264 266 269 268 268
107 111 120 128 134 142 153 165 175 192 219 235 252 230 201 216 235 247 251 252 251 251 255 255 258 258 254 251 250 253 258 262 264 265 266 267 267 269 269 269 269 269 268
94 98 98 100 111 124 130 136 153 170 194 224 249 282 175 230 263 267 267 269 266 263 258 253 259 264 261 257 258 259 263 266 266 267 269 269 270 270 272 271 271 273 272
87 91 95 93 90 91 96 90 104 144 187 204 243 279 272 272 271 270 271 275 279 282 282 276 271 274 278 279 272 266 269 274 276 272 266 265 268 269 269 271 272 273 274
73 77 79 80 80 75 74 75 68 51 30 11 4 322 307 302 298 300 303 300 297 294 294 291 284 282 285 285 285 285 287 284 281 283 278 270 267 266 266 268 269 271 271
65 66 64 62 62 61 60 56 46 32 11 350 350 343 323 311 306 306 305 302 302 301 300 299 297 296 294 290 288 292 290 288 287 285 281 273 268 267 270 271 274 274 276